Nashville, TN (JWN)

Redbird FMX

Given the close proximity to downtown Nashville, Tennessee, John Tune (JWN) is a great place for the general aviation enthusiast or for someone learning how to fly. Wings of Eagles Aviation’s office is located in Hangar 1, and is accessible from the road or the ramp. The FBO is open 24 hours a day 7 days a week so there will always be someone available for help or fuel.

210 Tune Airport Dr.
Nashville, TN 37209

Phone: (615) 979-9222

Business Hours:
Monday-Sunday 7a-10p

NOAA Weather

Nashville, Nashville International Airport, TN

Last Updated on Oct 10 2015, 6:53 am CDT

Current Conditions: Mostly Cloudy


Temp: 58°F

Wind: North at 6mph

Humidity: 84%

Windchill: 57°F

Your 5-Day Forecast at a Glance

Available data for KBNA from the past hour

KBNA 101253Z 35006KT 10SM SCT047 BKN070 15/12 A3014 RMK AO2 SLP201 T01500117
KBNA 101125Z 1012/1112 01008KT P6SM BKN040